"startDT [UTC]","vpos","CH4 [ppm]","stdev(CH4) [ppm]","CO2 [ppm]","stdev(CO2) [ppm]","H2O [ppm]","stdev(H2O)","p_LGR [torr]","T_LGR [C]","mt1_LGR [us]","mt2_LGR [us]","T_ECpre [C]","T_EC1 [C]","T_EC2 [C]","p_inlet [hPa]","p_in [hPa]","p_out [hPa]","T_inlet [C]","RH_inlet [%]","dwpt_inlet [C]","T_vent [C]","RH_vent [%]","dwpt_vent [C]","flow_vent [l min-1]","flow_inlet [l min-1]","dwpt_sample [C]","T_room [C]"
2012-08-17 00:00:00,0.0,1.9672,0.0009,386.12,0.30,272.1,27.5,138.04,31.79,24.66,36.55,0.95,-26.09,9.85,-50,76,-924,26.6,29.3,7.2,26.4,1.5,-29.5,5.73,2.52,-26.8,30.3
2012-08-17 00:01:00,0.0,1.9672,0.0009,386.09,0.32,277.6,32.2,138.04,31.79,24.66,36.55,0.95,-26.08,10.22,-50,76,-924,26.6,29.2,7.2,26.4,1.5,-29.5,5.73,2.53,-26.8,30.3
2012-08-17 00:02:00,0.0,1.9670,0.0008,386.08,0.28,276.2,30.4,138.04,31.79,24.66,36.55,0.94,-26.07,10.58,-50,76,-924,26.6,29.2,7.2,26.4,1.5,-29.6,5.73,2.53,-26.8,30.3
2012-08-17 00:03:00,0.0,1.9678,0.0009,386.08,0.29,267.7,28.8,138.04,31.79,24.66,36.55,0.94,-26.07,10.93,-50,76,-924,26.6,29.1,7.2,26.4,1.5,-29.6,5.73,2.52,-26.8,30.3
2012-08-17 00:04:00,0.0,1.9680,0.0010,386.19,0.28,261.4,26.6,138.04,31.79,24.66,36.54,0.94,-26.06,11.27,-50,76,-924,26.6,29.1,7.2,26.4,1.5,-29.6,5.73,2.53,-26.8,30.3
2012-08-17 00:05:00,0.0,1.9677,0.0008,386.14,0.29,269.2,25.7,138.04,31.79,24.66,36.53,0.91,-26.06,11.59,-50,76,-924,26.6,29.1,7.1,26.4,1.5,-29.6,5.73,2.52,-26.8,30.3
2012-08-17 00:06:00,0.0,1.9674,0.0009,386.06,0.30,265.8,25.1,138.04,31.79,24.66,36.54,0.92,-26.05,11.91,-50,76,-924,26.6,29.1,7.2,26.4,1.5,-29.6,5.73,2.52,-26.8,30.3
2012-08-17 00:07:00,0.0,1.9675,0.0009,386.14,0.25,275.8,31.7,138.04,31.79,24.66,36.54,0.93,-26.04,12.21,-50,76,-924,26.6,29.2,7.2,26.4,1.5,-29.6,5.73,2.52,-26.8,30.3
2012-08-17 00:08:00,0.0,1.9674,0.0009,386.15,0.26,275.2,27.9,138.04,31.79,24.66,36.55,0.92,-26.03,12.51,-50,76,-924,26.6,29.3,7.2,26.4,1.5,-29.6,5.73,2.52,-26.8,30.3
2012-08-17 00:09:00,0.0,1.9672,0.0009,386.25,0.25,266.8,31.7,138.04,31.79,24.66,36.53,0.90,-26.03,12.78,-50,76,-923,26.6,29.2,7.2,26.5,1.5,-29.6,5.73,2.52,-26.8,30.3
2012-08-17 00:10:00,0.0,1.9680,0.0008,386.26,0.26,273.3,28.8,138.04,31.80,24.65,36.54,0.93,-26.02,13.06,-50,76,-924,26.6,29.0,7.1,26.4,1.5,-29.5,5.73,2.52,-26.8,30.3
2012-08-17 00:11:00,0.0,1.9675,0.0008,386.36,0.26,264.5,30.7,138.04,31.80,24.66,36.54,0.95,-26.01,13.32,-50,76,-924,26.6,29.0,7.1,26.4,1.5,-29.6,5.73,2.52,-26.8,30.3
2012-08-17 00:12:00,0.0,1.9673,0.0010,386.27,0.32,262.5,33.1,138.04,31.80,24.66,36.54,0.93,-26.02,13.56,-50,76,-924,26.6,29.0,7.1,26.5,1.5,-29.6,5.73,2.52,-26.8,30.4
2012-08-17 00:13:00,0.0,1.9672,0.0009,386.14,0.26,266.3,27.3,138.04,31.80,24.66,36.54,0.92,-26.01,13.80,-50,76,-924,26.6,29.1,7.2,26.5,1.5,-29.5,5.73,2.52,-26.8,30.4
2012-08-17 00:14:00,0.0,1.9679,0.0008,386.33,0.27,262.5,28.1,138.04,31.80,24.65,36.54,0.93,-26.00,14.02,-50,76,-924,26.6,29.0,7.1,26.5,1.5,-29.5,5.73,2.53,-26.8,30.4
2012-08-17 00:15:00,0.0,1.9675,0.0008,386.20,0.30,265.5,34.6,138.04,31.80,24.66,36.54,0.94,-26.00,14.24,-50,76,-924,26.6,28.9,7.1,26.5,1.5,-29.6,5.73,2.53,-26.9,30.4
2012-08-17 00:16:00,0.0,1.9663,0.0008,386.30,0.29,268.6,31.0,138.04,31.80,24.66,36.54,0.94,-25.99,14.45,-50,76,-924,26.6,29.0,7.1,26.4,1.5,-29.6,5.73,2.53,-26.8,30.5
2012-08-17 00:17:00,0.0,1.9664,0.0009,386.22,0.28,268.0,30.4,138.04,31.80,24.66,36.54,0.95,-25.98,14.65,-50,76,-924,26.6,28.9,7.1,26.5,1.5,-29.5,5.73,2.53,-26.9,30.5
2012-08-17 00:18:00,0.0,1.9659,0.0009,386.03,0.33,268.5,29.7,138.04,31.80,24.66,36.54,0.94,-25.98,14.85,-50,76,-924,26.6,29.0,7.1,26.5,1.5,-29.5,5.73,2.53,-26.9,30.4
2012-08-17 00:19:00,0.0,1.9674,0.0010,386.37,0.28,273.9,32.0,138.04,31.80,24.66,36.54,0.93,-25.97,15.03,-50,76,-924,26.6,29.1,7.2,26.5,1.5,-29.5,5.73,2.52,-26.8,30.5
2012-08-17 00:20:00,0.0,1.9667,0.0009,386.32,0.30,266.4,28.3,138.04,31.81,24.66,36.54,0.94,-25.97,15.21,-50,76,-924,26.6,29.0,7.1,26.5,1.5,-29.5,5.73,2.52,-26.9,30.5
2012-08-17 00:21:00,0.0,1.9672,0.0009,386.21,0.31,263.7,29.5,138.04,31.81,24.66,36.54,0.95,-25.96,15.39,-50,76,-924,26.7,28.9,7.1,26.5,1.5,-29.5,5.73,2.53,-26.8,30.4
2012-08-17 00:22:00,0.0,1.9673,0.0011,386.39,0.23,270.5,30.0,138.04,31.81,24.66,36.54,0.96,-25.96,15.54,-50,76,-924,26.6,28.9,7.1,26.5,1.5,-29.5,5.73,2.52,-26.8,30.4
2012-08-17 00:23:00,0.0,1.9673,0.0009,386.05,0.24,266.2,29.4,138.04,31.81,24.66,36.55,0.95,-25.95,15.69,-50,76,-924,26.7,28.9,7.1,26.5,1.5,-29.6,5.73,2.52,-26.8,30.3
2012-08-17 00:24:00,0.0,1.9675,0.0007,386.20,0.30,270.6,28.1,138.04,31.81,24.66,36.54,0.95,-25.95,15.85,-50,76,-924,26.7,29.0,7.1,26.5,1.5,-29.5,5.73,2.52,-26.7,30.3
2012-08-17 00:25:00,0.0,1.9679,0.0010,386.18,0.30,266.4,28.2,138.04,31.81,24.66,36.54,0.95,-25.95,15.98,-50,76,-924,26.7,29.1,7.2,26.5,1.5,-29.5,5.73,2.52,-26.7,30.4
2012-08-17 00:26:00,0.0,1.9679,0.0008,386.27,0.26,273.3,28.4,138.04,31.81,24.66,36.54,0.95,-25.94,16.12,-50,76,-924,26.7,29.1,7.2,26.5,1.5,-29.5,5.73,2.52,-26.7,30.5
2012-08-17 00:27:00,0.0,1.9680,0.0010,386.26,0.29,269.6,28.9,138.04,31.82,24.66,36.54,0.93,-25.94,16.25,-50,76,-924,26.7,29.0,7.1,26.5,1.5,-29.5,5.73,2.52,-26.7,30.4
2012-08-17 00:28:00,0.0,1.9679,0.0008,386.08,0.27,266.9,27.9,138.04,31.82,24.66,36.55,0.93,-25.93,16.37,-50,76,-924,26.7,29.1,7.2,26.5,1.5,-29.6,5.73,2.52,-26.7,30.4
2012-08-17 00:29:00,0.0,1.9680,0.0008,386.10,0.26,265.3,34.5,138.04,31.82,24.66,36.54,0.94,-25.93,16.49,-50,76,-924,26.7,29.2,7.2,26.5,1.5,-29.5,5.73,2.52,-26.7,30.4
2012-08-17 00:30:00,0.0,1.9677,0.0008,386.20,0.29,272.0,28.2,138.04,31.82,24.66,36.54,0.94,-25.92,16.61,-50,76,-924,26.7,29.2,7.2,26.5,1.5,-29.5,5.73,2.52,-26.7,30.4
2012-08-17 00:31:00,0.0,1.9679,0.0009,386.27,0.32,264.3,30.6,138.04,31.82,24.66,36.54,0.94,-25.92,16.71,-50,76,-924,26.7,29.1,7.2,26.5,1.5,-29.6,5.73,2.52,-26.7,30.4
2012-08-17 00:32:00,0.0,1.9681,0.0011,386.16,0.23,270.5,31.1,138.04,31.82,24.66,36.55,0.92,-25.92,16.82,-50,76,-924,26.7,28.9,7.1,26.5,1.5,-29.6,5.73,2.53,-26.7,30.4
2012-08-17 00:33:00,0.0,1.9682,0.0010,386.25,0.29,264.2,30.4,138.04,31.82,24.66,36.54,0.93,-25.92,16.92,-50,76,-924,26.7,28.9,7.1,26.5,1.5,-29.5,5.73,2.53,-26.7,30.4
2012-08-17 00:34:00,0.0,1.9660,0.0014,386.27,0.27,263.7,27.0,138.04,31.82,24.66,36.54,0.93,-25.91,17.02,-50,76,-924,26.7,29.0,7.1,26.5,1.5,-29.5,5.73,2.53,-26.7,30.4
2012-08-17 00:35:00,0.0,1.9638,0.0010,386.47,0.29,275.0,31.0,138.04,31.82,24.66,36.54,0.93,-25.91,17.11,-50,76,-924,26.7,29.0,7.2,26.5,1.5,-29.6,5.73,2.53,-26.7,30.3
2012-08-17 00:36:00,0.0,1.9638,0.0009,386.43,0.30,267.9,25.8,138.04,31.82,24.66,36.54,0.93,-25.91,17.19,-50,76,-924,26.7,28.9,7.1,26.5,1.5,-29.5,5.73,2.53,-26.7,30.3
2012-08-17 00:37:00,0.0,1.9646,0.0009,386.53,0.30,271.1,27.3,138.04,31.83,24.66,36.54,0.93,-25.90,17.27,-50,76,-924,26.7,29.0,7.1,26.5,1.5,-29.5,5.73,2.53,-26.7,30.3
2012-08-17 00:38:00,0.0,1.9656,0.0008,386.55,0.30,261.6,31.7,138.04,31.82,24.66,36.54,0.95,-25.90,17.36,-50,76,-924,26.7,29.0,7.2,26.5,1.5,-29.5,5.73,2.52,-26.7,30.4
2012-08-17 00:39:00,0.0,1.9656,0.0009,386.53,0.32,268.1,28.7,138.04,31.83,24.66,36.54,0.93,-25.90,17.43,-50,76,-924,26.7,29.0,7.2,26.5,1.5,-29.5,5.73,2.52,-26.8,30.4
2012-08-17 00:40:00,0.0,1.9656,0.0008,386.54,0.33,265.7,28.4,138.04,31.83,24.66,36.54,0.94,-25.89,17.51,-50,76,-924,26.7,29.0,7.2,26.5,1.5,-29.6,5.73,2.52,-26.8,30.4
2012-08-17 00:41:00,0.0,1.9664,0.0008,386.54,0.31,258.2,25.2,138.04,31.83,24.66,36.54,0.94,-25.89,17.57,-50,76,-924,26.7,29.0,7.1,26.5,1.5,-29.5,5.73,2.52,-26.8,30.4
2012-08-17 00:42:00,0.0,1.9666,0.0007,386.57,0.28,264.0,27.6,138.04,31.83,24.66,36.54,0.92,-25.89,17.64,-50,76,-924,26.7,29.0,7.1,26.5,1.5,-29.5,5.73,2.52,-26.8,30.4
2012-08-17 00:43:00,0.0,1.9669,0.0009,386.57,0.31,262.0,27.3,138.04,31.83,24.65,36.54,0.95,-25.89,17.70,-50,76,-924,26.7,29.0,7.1,26.5,1.5,-29.5,5.73,2.52,-26.8,30.4
2012-08-17 00:44:00,0.0,1.9666,0.0008,386.56,0.27,270.3,28.7,138.04,31.83,24.66,36.54,0.93,-25.89,17.77,-50,76,-924,26.7,29.1,7.2,26.5,1.5,-29.5,5.73,2.52,-26.8,30.4
2012-08-17 00:45:00,0.0,1.9671,0.0009,386.58,0.25,257.1,29.3,138.04,31.83,24.66,36.54,0.94,-25.89,17.83,-50,76,-924,26.7,29.1,7.2,26.5,1.5,-29.6,5.73,2.52,-26.8,30.4
2012-08-17 00:46:00,0.0,1.9675,0.0009,386.49,0.35,267.3,29.6,138.04,31.83,24.66,36.54,0.95,-25.89,17.88,-50,76,-924,26.7,29.1,7.2,26.5,1.5,-29.5,5.73,2.52,-26.8,30.4
2012-08-17 00:47:00,0.0,1.9674,0.0011,386.52,0.25,260.0,32.8,138.04,31.83,24.66,36.55,0.93,-25.89,17.94,-50,76,-924,26.7,29.1,7.2,26.5,1.5,-29.5,5.73,2.52,-26.8,30.3
2012-08-17 00:48:00,0.0,1.9671,0.0009,386.63,0.34,261.3,34.8,138.04,31.83,24.66,36.54,0.95,-25.89,17.99,-50,76,-924,26.7,29.1,7.2,26.5,1.5,-29.5,5.73,2.52,-26.8,30.4
2012-08-17 00:49:00,0.0,1.9680,0.0009,386.55,0.28,257.2,27.9,138.04,31.83,24.66,36.55,0.94,-25.89,18.03,-50,76,-924,26.7,29.2,7.2,26.5,1.5,-29.5,5.73,2.52,-26.8,30.4
2012-08-17 00:50:00,0.0,1.9688,0.0008,386.59,0.28,259.0,25.8,138.04,31.83,24.66,36.54,0.94,-25.89,18.08,-50,76,-924,26.7,29.2,7.2,26.5,1.5,-29.5,5.73,2.53,-26.8,30.4
2012-08-17 00:51:00,0.0,1.9692,0.0010,386.64,0.26,258.9,32.5,138.04,31.83,24.65,36.54,0.95,-25.88,18.13,-50,76,-924,26.7,29.1,7.2,26.5,1.5,-29.5,5.73,2.53,-26.8,30.4
2012-08-17 00:52:00,0.0,1.9688,0.0011,386.49,0.33,261.6,30.6,138.04,31.83,24.66,36.54,0.95,-25.88,18.17,-50,76,-924,26.7,29.0,7.2,26.5,1.5,-29.6,5.73,2.53,-26.8,30.3
2012-08-17 00:53:00,0.0,1.9686,0.0009,386.46,0.30,255.9,26.3,138.04,31.83,24.66,36.55,0.95,-25.89,18.21,-50,76,-924,26.7,29.1,7.2,26.5,1.5,-29.5,5.73,2.53,-26.9,30.4
2012-08-17 00:54:00,0.0,1.9681,0.0010,386.50,0.35,261.4,29.1,138.04,31.83,24.66,36.55,0.95,-25.88,18.25,-50,76,-924,26.7,29.2,7.3,26.5,1.5,-29.5,5.73,2.53,-26.8,30.4
2012-08-17 00:55:00,0.0,1.9685,0.0009,386.73,0.34,262.8,32.4,138.04,31.84,24.66,36.53,0.94,-25.88,18.29,-50,76,-924,26.7,29.3,7.3,26.5,1.5,-29.6,5.73,2.53,-26.8,30.4
2012-08-17 00:56:00,0.0,1.9691,0.0009,386.71,0.31,257.6,26.9,138.04,31.84,24.66,36.54,0.95,-25.88,18.32,-50,76,-924,26.7,29.2,7.3,26.5,1.5,-29.5,5.73,2.53,-26.8,30.3
2012-08-17 00:57:00,0.0,1.9688,0.0009,386.65,0.26,264.0,25.1,138.04,31.84,24.66,36.54,0.95,-25.88,18.36,-50,76,-924,26.7,29.3,7.3,26.5,1.5,-29.5,5.73,2.52,-26.8,30.4
2012-08-17 00:58:00,0.0,1.9687,0.0010,386.64,0.25,259.6,30.6,138.04,31.84,24.65,36.54,0.95,-25.88,18.39,-50,76,-924,26.7,29.3,7.3,26.5,1.5,-29.6,5.73,2.52,-26.8,30.4
2012-08-17 00:59:00,0.0,1.9692,0.0009,386.75,0.31,258.5,32.3,138.04,31.84,24.65,36.54,0.94,-25.88,18.43,-50,76,-924,26.7,29.4,7.3,26.5,1.5,-29.5,5.73,2.52,-26.8,30.4
2012-08-17 01:00:00,0.0,1.9692,0.0010,386.66,0.29,264.5,28.3,138.04,31.84,24.66,36.54,0.95,-25.88,18.46,-50,76,-924,26.7,29.3,7.3,26.5,1.5,-29.6,5.73,2.52,-26.8,30.4
2012-08-17 01:01:00,0.0,1.9690,0.0008,386.73,0.32,260.5,28.3,138.04,31.84,24.66,36.54,0.95,-25.88,18.49,-50,76,-924,26.7,29.1,7.2,26.5,1.5,-29.5,5.73,2.52,-26.8,30.4
2012-08-17 01:02:00,0.0,1.9690,0.0009,386.47,0.25,266.3,29.8,138.04,31.84,24.66,36.55,0.94,-25.88,18.51,-50,76,-924,26.7,29.1,7.2,26.5,1.5,-29.6,5.73,2.52,-26.8,30.5
2012-08-17 01:03:00,0.0,1.9688,0.0009,386.56,0.27,265.7,27.2,138.04,31.84,24.66,36.54,0.94,-25.88,18.54,-50,76,-924,26.7,29.2,7.2,26.5,1.5,-29.5,5.73,2.52,-26.8,30.4
2012-08-17 01:04:00,0.0,1.9674,0.0008,386.60,0.25,257.5,30.8,138.04,31.84,24.66,36.54,0.92,-25.88,18.57,-50,76,-924,26.7,29.2,7.3,26.5,1.5,-29.5,5.73,2.52,-26.8,30.4
2012-08-17 01:05:00,0.0,1.9679,0.0012,386.49,0.26,256.0,28.9,138.04,31.85,24.66,36.55,0.93,-25.88,18.59,-50,76,-924,26.7,29.2,7.3,26.5,1.5,-29.6,5.73,2.52,-26.8,30.4
2012-08-17 01:06:00,0.0,1.9703,0.0008,386.79,0.29,250.3,26.1,138.04,31.85,24.66,36.54,0.94,-25.88,18.61,-50,76,-924,26.7,29.2,7.3,26.5,1.5,-29.5,5.73,2.52,-26.8,30.4
2012-08-17 01:07:00,0.0,1.9696,0.0011,386.68,0.24,259.0,34.8,138.04,31.85,24.65,36.54,0.93,-25.88,18.64,-50,76,-924,26.7,29.3,7.3,26.5,1.5,-29.5,5.73,2.53,-26.9,30.4
2012-08-17 01:08:00,0.0,1.9704,0.0009,386.55,0.34,264.8,29.8,138.04,31.85,24.66,36.54,0.93,-25.88,18.66,-50,76,-924,26.7,29.4,7.3,26.5,1.5,-29.5,5.73,2.53,-26.9,30.4
2012-08-17 01:09:00,0.0,1.9710,0.0007,386.75,0.32,259.2,33.4,138.04,31.85,24.66,36.54,0.91,-25.88,18.68,-50,76,-924,26.7,29.5,7.4,26.5,1.5,-29.6,5.73,2.53,-26.8,30.4
2012-08-17 01:10:00,0.0,1.9714,0.0009,386.62,0.30,259.0,27.1,138.04,31.85,24.66,36.55,0.91,-25.87,18.70,-50,76,-924,26.7,29.5,7.4,26.5,1.5,-29.5,5.73,2.53,-26.9,30.4
2012-08-17 01:11:00,0.0,1.9712,0.0009,386.71,0.30,252.6,28.3,138.04,31.85,24.66,36.54,0.94,-25.87,18.73,-50,76,-924,26.7,29.5,7.4,26.5,1.5,-29.6,5.73,2.53,-26.9,30.4
2012-08-17 01:12:00,0.0,1.9712,0.0008,386.63,0.28,249.3,32.2,138.04,31.85,24.66,36.54,0.94,-25.86,18.74,-50,76,-924,26.7,29.5,7.4,26.5,1.5,-29.5,5.73,2.53,-26.9,30.4
2012-08-17 01:13:00,0.0,1.9713,0.0010,386.68,0.32,259.8,28.5,138.04,31.85,24.66,36.54,0.94,-25.87,18.77,-50,76,-924,26.7,29.5,7.4,26.5,1.5,-29.5,5.73,2.53,-26.9,30.4
2012-08-17 01:14:00,0.0,1.9706,0.0008,386.73,0.32,259.8,28.5,138.04,31.86,24.66,36.54,0.93,-25.86,18.79,-50,76,-924,26.7,29.6,7.5,26.5,1.5,-29.6,5.73,2.52,-26.9,30.4
2012-08-17 01:15:00,0.0,1.9709,0.0010,386.66,0.33,254.3,27.4,138.04,31.86,24.65,36.54,0.93,-25.86,18.80,-50,76,-924,26.7,29.6,7.4,26.5,1.5,-29.6,5.73,2.53,-26.9,30.4
2012-08-17 01:16:00,0.0,1.9714,0.0009,386.71,0.26,261.1,30.0,138.04,31.86,24.65,36.54,0.94,-25.86,18.82,-50,76,-924,26.7,29.5,7.4,26.5,1.5,-29.7,5.73,2.52,-26.9,30.4
2012-08-17 01:17:00,0.0,1.9716,0.0010,386.63,0.30,258.4,26.6,138.04,31.86,24.66,36.54,0.93,-25.86,18.83,-50,76,-924,26.7,29.5,7.4,26.5,1.5,-29.7,5.73,2.52,-26.9,30.4
2012-08-17 01:18:00,0.0,1.9713,0.0009,386.60,0.31,247.1,30.2,138.04,31.86,24.65,36.54,0.95,-25.86,18.84,-50,76,-924,26.7,29.5,7.4,26.5,1.5,-29.7,5.73,2.52,-26.9,30.4
2012-08-17 01:19:00,0.0,1.9714,0.0008,386.55,0.30,256.3,33.7,138.04,31.86,24.66,36.55,0.95,-25.86,18.85,-50,76,-924,26.7,29.5,7.4,26.5,1.5,-29.7,5.73,2.52,-26.9,30.4
2012-08-17 01:20:00,0.0,1.9729,0.0012,386.69,0.31,259.4,32.1,138.03,31.86,24.66,36.54,1.14,-25.86,18.02,-50,76,-924,26.7,29.4,7.4,26.5,1.5,-29.8,5.73,2.52,-26.9,30.4
2012-08-17 01:21:00,0.0,1.9740,0.0010,386.67,0.27,261.3,30.1,138.04,31.86,24.66,36.55,1.07,-25.85,15.92,-50,76,-924,26.7,29.4,7.4,26.5,1.5,-29.8,5.73,2.52,-26.9,30.4
2012-08-17 01:22:00,0.0,1.9735,0.0009,386.73,0.29,262.9,27.5,138.04,31.86,24.66,36.55,1.01,-25.86,13.55,-50,76,-924,26.7,29.3,7.3,26.5,1.5,-29.8,5.73,2.52,-26.9,30.4
2012-08-17 01:23:00,0.0,1.9733,0.0009,386.69,0.32,267.5,29.7,138.04,31.86,24.65,36.54,1.10,-25.87,11.19,-50,76,-924,26.7,29.3,7.3,26.5,1.5,-29.7,5.73,2.52,-26.9,30.4
2012-08-17 01:24:00,0.0,1.9725,0.0009,386.64,0.29,256.8,28.1,138.04,31.85,24.66,36.55,1.01,-25.88,8.90,-50,76,-924,26.7,29.3,7.3,26.5,1.5,-29.7,5.73,2.53,-26.9,30.4
2012-08-17 01:25:00,0.0,1.9727,0.0009,386.64,0.29,255.8,26.7,138.04,31.85,24.66,36.55,1.01,-25.88,6.70,-50,76,-924,26.7,29.3,7.3,26.5,1.5,-29.7,5.73,2.53,-26.9,30.4
2012-08-17 01:26:00,0.0,1.9734,0.0010,386.65,0.31,254.2,30.1,138.04,31.85,24.66,36.54,1.10,-25.89,4.61,-50,76,-924,26.7,29.3,7.3,26.5,1.5,-29.7,5.73,2.53,-26.9,30.4
2012-08-17 01:27:00,0.0,1.9739,0.0008,386.62,0.25,253.1,26.4,138.04,31.85,24.65,36.54,1.01,-25.89,2.61,-50,76,-924,26.7,29.3,7.3,26.5,1.5,-29.7,5.73,2.52,-26.9,30.4
2012-08-17 01:28:00,0.0,1.9739,0.0009,386.77,0.31,249.6,30.7,138.04,31.85,24.66,36.54,1.02,-25.89,0.73,-50,76,-924,26.7,29.3,7.3,26.5,1.5,-29.7,5.73,2.51,-26.9,30.4
2012-08-17 01:29:00,0.0,1.9742,0.0008,386.77,0.32,253.3,29.7,138.04,31.85,24.66,36.54,1.11,-25.89,-1.06,-50,76,-924,26.7,29.3,7.3,26.5,1.5,-29.8,5.73,2.51,-26.9,30.4
2012-08-17 01:30:00,0.0,1.9741,0.0011,386.72,0.29,254.3,31.1,138.04,31.85,24.66,36.54,1.00,-25.90,-2.60,-50,76,-924,26.7,29.4,7.3,26.5,1.5,-29.7,5.73,2.51,-26.9,30.5
2012-08-17 01:31:00,0.0,1.9745,0.0009,386.59,0.26,248.0,26.2,138.04,31.85,24.66,36.54,1.00,-25.89,-3.90,-50,76,-924,26.7,29.4,7.3,26.5,1.5,-29.7,5.73,2.51,-26.9,30.4
2012-08-17 01:32:00,0.0,1.9751,0.0011,386.59,0.32,253.1,27.1,138.04,31.85,24.66,36.54,1.08,-25.90,-5.20,-50,76,-924,26.7,29.5,7.4,26.5,1.5,-29.8,5.73,2.52,-26.9,30.4
2012-08-17 01:33:00,0.0,1.9747,0.0010,386.54,0.26,248.7,29.5,138.04,31.85,24.66,36.54,1.04,-25.91,-6.59,-50,76,-924,26.7,29.6,7.4,26.5,1.5,-29.7,5.73,2.52,-26.9,30.4
2012-08-17 01:34:00,0.0,1.9759,0.0012,386.61,0.35,256.1,26.4,138.04,31.85,24.66,36.54,0.98,-25.91,-7.81,-50,76,-924,26.7,29.6,7.4,26.5,1.5,-29.7,5.73,2.53,-26.9,30.4
2012-08-17 01:35:00,0.0,1.9766,0.0009,386.51,0.32,254.0,28.0,138.04,31.85,24.66,36.55,1.03,-25.91,-9.07,-51,76,-924,26.7,29.5,7.4,26.5,1.5,-29.7,5.73,2.52,-26.9,30.3
2012-08-17 01:36:00,0.0,1.9770,0.0007,386.76,0.28,258.9,29.8,138.04,31.85,24.65,36.54,1.09,-25.91,-10.11,-50,76,-924,26.7,29.4,7.3,26.5,1.5,-29.7,5.73,2.51,-26.9,30.3
2012-08-17 01:37:00,0.0,1.9774,0.0011,386.80,0.34,256.7,32.4,138.04,31.85,24.66,36.54,0.99,-25.92,-11.02,-50,76,-924,26.7,29.4,7.3,26.5,1.5,-29.7,5.73,2.50,-27.0,30.3
2012-08-17 01:38:00,0.0,1.9777,0.0010,386.57,0.33,256.7,27.2,138.04,31.85,24.65,36.55,1.01,-25.92,-12.03,-50,76,-924,26.6,29.5,7.4,26.5,1.5,-29.7,5.73,2.50,-27.0,30.3
2012-08-17 01:39:00,0.0,1.9772,0.0009,386.61,0.31,258.7,27.6,138.04,31.85,24.66,36.55,1.08,-25.94,-13.07,-50,76,-924,26.6,29.5,7.4,26.5,1.5,-29.7,5.73,2.52,-27.0,30.3
2012-08-17 01:40:00,0.0,1.9778,0.0009,386.56,0.34,251.3,32.4,138.04,31.85,24.66,36.54,1.02,-25.95,-14.06,-50,76,-924,26.7,29.5,7.4,26.5,1.5,-29.7,5.73,2.52,-27.0,30.3
2012-08-17 01:41:00,0.0,1.9779,0.0010,386.72,0.27,254.8,31.1,138.04,31.85,24.66,36.54,0.97,-25.96,-14.97,-50,76,-924,26.6,29.6,7.4,26.5,1.5,-29.8,5.73,2.52,-27.0,30.2
2012-08-17 01:42:00,0.0,1.9776,0.0009,386.56,0.31,254.0,35.5,138.04,31.85,24.66,36.53,1.03,-25.97,-15.82,-50,76,-924,26.6,29.6,7.4,26.5,1.5,-29.7,5.73,2.52,-27.0,30.3
2012-08-17 01:43:00,0.0,1.9770,0.0009,386.54,0.28,251.8,24.8,138.04,31.85,24.66,36.55,1.08,-25.98,-16.64,-50,76,-924,26.6,29.7,7.5,26.5,1.5,-29.7,5.73,2.52,-27.0,30.3
2012-08-17 01:44:00,0.0,1.9774,0.0010,386.63,0.29,250.8,35.8,138.04,31.85,24.66,36.54,1.00,-25.99,-17.40,-50,76,-924,26.6,29.7,7.5,26.4,1.5,-29.8,5.73,2.51,-27.0,30.3
2012-08-17 01:45:00,0.0,1.9762,0.0009,386.35,0.33,253.5,31.8,138.04,31.84,24.66,36.55,0.97,-26.00,-18.03,-50,76,-924,26.6,29.6,7.4,26.5,1.5,-29.7,5.73,2.51,-27.0,30.3
2012-08-17 01:46:00,0.0,1.9756,0.0010,386.41,0.32,252.4,28.5,138.04,31.84,24.66,36.54,1.04,-26.01,-18.71,-50,76,-924,26.6,29.7,7.5,26.4,1.5,-29.7,5.73,2.51,-27.0,30.2
2012-08-17 01:47:00,0.0,1.9726,0.0019,386.35,0.28,253.1,22.6,138.04,31.84,24.66,36.54,1.06,-26.02,-19.37,-51,76,-924,26.6,29.8,7.5,26.4,1.5,-29.7,5.73,2.51,-27.0,30.2
2012-08-17 01:48:00,0.0,1.9694,0.0009,386.25,0.26,245.9,30.0,138.04,31.84,24.66,36.55,0.99,-26.03,-19.98,-50,76,-924,26.6,29.8,7.5,26.4,1.5,-29.7,5.73,2.52,-27.1,30.2
2012-08-17 01:49:00,0.0,1.9690,0.0009,386.29,0.27,248.8,28.6,138.04,31.84,24.66,36.54,0.98,-26.04,-20.56,-50,76,-924,26.6,29.5,7.3,26.4,1.5,-29.8,5.73,2.52,-27.1,30.1
2012-08-17 01:50:00,0.0,1.9687,0.0009,386.23,0.35,252.5,28.0,138.04,31.84,24.66,36.54,1.02,-26.06,-21.10,-50,76,-924,26.6,29.4,7.3,26.4,1.5,-29.9,5.73,2.52,-27.1,30.2
2012-08-17 01:51:00,0.0,1.9688,0.0009,386.14,0.31,251.1,30.9,138.04,31.84,24.66,36.54,1.07,-26.07,-21.61,-50,77,-924,26.6,29.4,7.3,26.4,1.5,-29.9,5.73,2.51,-27.1,30.2
2012-08-17 01:52:00,0.0,1.9685,0.0008,386.14,0.27,242.5,25.8,138.04,31.83,24.66,36.54,1.02,-26.08,-22.08,-50,76,-924,26.6,29.3,7.3,26.4,1.5,-30.0,5.73,2.50,-27.1,30.2
2012-08-17 01:53:00,0.0,1.9658,0.0015,386.11,0.31,246.6,31.6,138.04,31.83,24.66,36.54,0.96,-26.09,-22.51,-50,76,-924,26.6,29.5,7.3,26.4,1.5,-30.0,5.73,2.51,-27.1,30.3
2012-08-17 01:54:00,0.0,1.9645,0.0009,386.02,0.26,243.8,29.2,138.04,31.83,24.65,36.55,1.00,-26.10,-22.92,-50,77,-924,26.6,29.5,7.4,26.4,1.5,-30.0,5.73,2.51,-27.1,30.3
2012-08-17 01:55:00,0.0,1.9660,0.0012,386.06,0.27,242.6,28.4,138.04,31.83,24.66,36.54,1.07,-26.11,-23.32,-50,76,-924,26.6,29.5,7.3,26.4,1.5,-30.0,5.73,2.52,-27.1,30.3
2012-08-17 01:56:00,0.0,1.9658,0.0018,386.06,0.28,252.5,29.5,138.04,31.83,24.66,36.54,1.03,-26.12,-23.69,-50,77,-924,26.6,29.4,7.3,26.4,1.5,-30.0,5.73,2.53,-27.1,30.3
2012-08-17 01:57:00,0.0,1.9627,0.0010,385.98,0.31,242.7,32.5,138.04,31.83,24.66,36.54,0.97,-26.13,-24.04,-50,76,-924,26.6,29.3,7.2,26.4,1.5,-30.0,5.73,2.52,-27.1,30.3
2012-08-17 01:58:00,0.0,1.9674,0.0024,386.12,0.37,242.0,32.7,138.04,31.83,24.66,36.54,0.99,-26.14,-24.36,-50,77,-924,26.6,29.4,7.3,26.4,1.5,-30.0,5.73,2.52,-27.1,30.3
2012-08-17 01:59:00,0.0,1.9699,0.0013,386.22,0.29,250.7,26.8,138.04,31.83,24.66,36.54,1.05,-26.15,-24.67,-50,77,-924,26.6,29.5,7.3,26.4,1.5,-29.9,5.73,2.51,-27.2,30.2
2012-08-17 02:00:00,0.0,1.9675,0.0011,386.16,0.36,248.7,32.3,138.04,31.83,24.66,36.54,1.05,-26.17,-24.96,-50,76,-924,26.6,29.2,7.2,26.4,1.5,-30.0,5.73,2.50,-27.2,30.2
2012-08-17 02:01:00,0.0,1.9656,0.0010,386.03,0.31,245.5,31.1,138.04,31.83,24.66,36.55,0.98,-26.18,-25.24,-50,77,-924,26.6,29.3,7.2,26.4,1.5,-30.0,5.73,2.51,-27.2,30.2
2012-08-17 02:02:00,0.0,1.9653,0.0010,386.00,0.34,246.9,27.9,138.04,31.83,24.66,36.54,0.98,-26.19,-25.50,-50,76,-924,26.6,29.3,7.3,26.4,1.5,-30.1,5.73,2.52,-27.2,30.3
2012-08-17 02:03:00,0.0,1.9642,0.0009,386.13,0.27,242.9,29.5,138.04,31.82,24.66,36.54,1.03,-26.20,-25.74,-50,76,-924,26.6,29.3,7.3,26.4,1.4,-30.2,5.73,2.52,-27.2,30.3
2012-08-17 02:04:00,0.0,1.9648,0.0009,386.16,0.31,244.5,29.5,138.04,31.82,24.66,36.54,1.07,-26.21,-25.98,-50,77,-924,26.6,29.2,7.2,26.4,1.4,-30.2,5.73,2.53,-27.2,30.2
2012-08-17 02:05:00,0.0,1.9676,0.0015,385.98,0.34,240.7,24.0,138.04,31.83,24.66,36.55,1.00,-26.22,-26.19,-50,76,-924,26.6,29.3,7.2,26.4,1.4,-30.2,5.73,2.51,-27.2,30.2
2012-08-17 02:06:00,0.0,1.9688,0.0011,386.11,0.30,240.0,32.6,138.04,31.83,24.65,36.54,0.96,-26.23,-26.06,-51,77,-924,26.6,29.3,7.2,26.4,1.4,-30.2,5.73,2.51,-27.3,30.2
2012-08-17 02:07:00,0.0,1.9673,0.0008,386.12,0.29,233.9,32.7,138.04,31.82,24.66,36.54,0.97,-26.24,-26.00,-50,77,-924,26.6,29.2,7.2,26.4,1.4,-30.2,5.73,2.50,-27.3,30.1
2012-08-17 02:08:00,0.0,1.9677,0.0008,386.09,0.27,238.5,28.1,138.04,31.82,24.66,36.55,1.01,-26.24,-26.15,-50,77,-924,26.6,29.2,7.2,26.4,1.4,-30.1,5.73,2.51,-27.3,30.2
2012-08-17 02:09:00,0.0,1.9681,0.0011,386.09,0.31,238.5,25.1,138.04,31.82,24.66,36.54,0.94,-26.26,-26.21,-50,77,-924,26.6,29.2,7.2,26.4,1.4,-30.2,5.73,2.52,-27.3,30.2
2012-08-17 02:10:00,0.0,1.9689,0.0009,386.01,0.32,246.7,29.6,138.04,31.82,24.66,36.55,1.04,-26.27,-25.99,-50,77,-924,26.6,29.4,7.3,26.4,1.4,-30.2,5.73,2.53,-27.3,30.2
2012-08-17 02:11:00,0.0,1.9675,0.0010,386.20,0.30,241.7,27.2,138.04,31.82,24.65,36.54,1.06,-26.28,-26.11,-50,77,-924,26.6,29.4,7.3,26.4,1.4,-30.1,5.73,2.52,-27.3,30.2
2012-08-17 02:12:00,0.0,1.9664,0.0009,386.05,0.30,235.3,25.9,138.04,31.82,24.66,36.54,0.96,-26.28,-26.27,-50,76,-924,26.6,29.3,7.2,26.4,1.4,-30.2,5.73,2.52,-27.3,30.2
2012-08-17 02:13:00,0.0,1.9620,0.0022,385.95,0.27,237.5,32.3,138.04,31.82,24.66,36.54,0.98,-26.30,-26.07,-50,77,-924,26.6,29.5,7.4,26.4,1.4,-30.2,5.73,2.51,-27.3,30.3
2012-08-17 02:14:00,0.0,1.9585,0.0009,385.82,0.34,225.4,26.1,138.04,31.82,24.66,36.54,0.98,-26.31,-26.07,-50,76,-924,26.6,29.6,7.4,26.4,1.4,-30.1,5.73,2.51,-27.3,30.3
2012-08-17 02:15:00,0.0,1.9586,0.0009,385.82,0.28,232.7,27.2,138.04,31.82,24.66,36.55,1.04,-26.32,-26.24,-50,77,-924,26.6,29.4,7.3,26.4,1.4,-30.2,5.73,2.51,-27.4,30.3
2012-08-17 02:16:00,0.0,1.9590,0.0009,385.90,0.30,232.5,31.4,138.04,31.82,24.66,36.54,0.94,-26.32,-26.24,-51,76,-924,26.6,29.3,7.2,26.4,1.4,-30.2,5.73,2.52,-27.4,30.3
2012-08-17 02:17:00,0.0,1.9598,0.0007,385.86,0.30,230.1,26.2,138.04,31.81,24.66,36.54,1.05,-26.34,-26.06,-50,77,-924,26.6,29.2,7.2,26.4,1.4,-30.2,5.73,2.53,-27.4,30.3
2012-08-17 02:18:00,0.0,1.9606,0.0009,385.91,0.31,234.6,30.3,138.04,31.81,24.66,36.55,1.01,-26.34,-26.19,-50,76,-924,26.6,29.2,7.2,26.4,1.4,-30.2,5.73,2.51,-27.4,30.2
2012-08-17 02:19:00,0.0,1.9607,0.0009,385.88,0.32,227.7,24.9,138.04,31.81,24.66,36.55,0.93,-25.71,-26.38,-50,77,-924,26.6,29.1,7.1,26.4,1.4,-30.2,5.73,2.52,-27.4,30.3
2012-08-17 02:20:00,0.0,1.9612,0.0010,385.88,0.34,232.2,27.9,138.04,31.81,24.66,36.54,0.86,-23.97,-26.54,-50,77,-924,26.6,29.2,7.2,26.4,1.4,-30.3,5.73,2.52,-27.3,30.3